Regional Weather Roundup
Issued by NWS Albany, NY

Home | Current Version | Previous Version | Graphics & Text | Print | Product List | Glossary Off
Versions: 1 2 3 4 5 6 7 8 9 10 11 12 13 14 15 16 17 18 19 20 21 22 23 24 25 26 27 28 29 30 31 32 33 34 35 36 37 38 39 40 41 42 43 44 45 46 47 48 49 50

000
ASUS41 KALY 271310
RWRALY

NEW YORK STATE HOURLY WEATHER ROUNDUP
NATIONAL WEATHER SERVICE ALBANY NY
900 AM EDT MON APR 27 2015

NOTE: "FAIR" INDICATES FEW OR NO CLOUDS BELOW 12,000 FEET WITH NO
SIGNIFICANT WEATHER AND/OR NO OBSTRUCTIONS TO VISIBILITY.

NYZ032-033-038>043-046>054-057>066-NYZ062>081-271400-
EAST


CITY           SKY/WX    TMP DP  RH WIND       PRES   REMARKS
ALBANY         CLOUDY    49  34  56 NW10      29.70R
GLENS FALLS    CLOUDY    49  36  61 N10       29.68F
POUGHKEEPSIE   CLOUDY    52  34  50 N6        29.67S
NEWBURGH       PTSUNNY   50  36  57 NW8       29.68F
MONTGOMERY     CLOUDY    50  34  54 VRB5      29.67S
WHITE PLAINS   MOSUNNY   51  33  50 NW16G23   29.65S
ISLIP          PTSUNNY   50  33  52 NW14      29.64S
NEW YORK CITY  CLOUDY    50  32  50 NW7       29.68S
CENTRAL PARK   CLOUDY    51  31  46 VRB3      29.70S
$$

NYZ005>009-017-018-044>046-055-056-271400-
CENTRAL


CITY           SKY/WX    TMP DP  RH WIND       PRES   REMARKS
FULTON         CLOUDY    45  36  70 N10       29.78R
SYRACUSE       CLOUDY    44  37  76 NW12      29.77R
ROME           CLOUDY    44  36  73 W3        29.75S
ELMIRA         CLOUDY    45  35  68 VRB3      29.76S
BINGHAMTON     CLOUDY    40  35  83 NW9       29.71S WCI  34
MONTICELLO     CLOUDY    43  34  70 NW12G18   29.70S
$$

NYZ026>034-041>043-271400-
NORTH


CITY           SKY/WX    TMP DP  RH WIND       PRES   REMARKS
WATERTOWN      CLOUDY    42  36  79 VRB5      29.78R
FORT DRUM      NOT AVBL
MASSENA        CLOUDY    43  37  79 W7        29.77S
SARANAC LAKE   CLOUDY    37  34  89 NW3       29.69R
PLATTSBURGH    CLOUDY    44  38  79 NW10      29.71S
$$

NYZ001>004-010>016-019>021-271400-
WEST


CITY           SKY/WX    TMP DP  RH WIND       PRES   REMARKS
NIAGARA FALLS  LGT RAIN  39  36  89 N13       29.84R FOG     WCI  31
BUFFALO        LGT RAIN  40  37  89 N10       29.82R WCI  33
DUNKIRK        LGT RAIN  39  38  96 W5        29.84R
JAMESTOWN      CLOUDY    37  34  87 NW8       29.81R WCI  31
WELLSVILLE     CLOUDY    38  33  82 N10       29.78R WCI  31
ROCHESTER      LGT RAIN  43  36  76 N8        29.81R
PENN YAN       CLOUDY    43  36  76 NW8       29.78R
$$

             KEY
       WCI = WIND CHILL INDEX
       VSB = VISIBILITY
       HX  = HEAT INDEX
$$



USA.gov is the U.S. government's official web portal to all federal, state and local government web resources and services.